EW4748 Ridge NY US current weather conditions

sailwx.info

Wind from 212 at 3 knots gusting 11

Air temperature 22.2° C
Dewpoint 21.6° C

Last reported at 2020-Jul-11 05:02 UTC.
Time now 2020-Jul-11 05:18 UTC

Location: N 40°53' W 072°55'.
View on Google Maps.

See reports from other nearby stations

  
Tides and Currents Weather Stations Pressure Air Temp Water Temp Dewpoint Dewpoint Depression Visibility Wind Speed Wind Dir Waves Ship Positions
date/time (UTC)wind fromknots sea level pressurealtimeterstation pressurevisibilityair tempwater tempwave heightnotes
2020-Jul-11 05:02 212 3 gusting 11 22.2
2020-Jul-11 04:57 197 4 gusting 11 22.2
2020-Jul-11 04:52 155 4 gusting 13 22.2
2020-Jul-11 04:47 170 3 gusting 13 22.2
2020-Jul-11 04:42 177 3 gusting 9 22.2
2020-Jul-11 04:37 176 4 gusting 13 22.2
2020-Jul-11 04:32 160 4 gusting 13 22.2
2020-Jul-11 04:27 156 3 gusting 9 22.2
2020-Jul-11 04:22 200 4 gusting 13 22.2
2020-Jul-11 04:17 171 4 gusting 13 22.2
2020-Jul-11 04:12 189 4 gusting 13 22.2
2020-Jul-11 04:07 143 3 gusting 11 22.2
2020-Jul-11 04:02 213 3 gusting 9 22.2
2020-Jul-11 03:57 145 3 gusting 11 22.2
2020-Jul-11 03:52 156 4 gusting 11 22.2
2020-Jul-11 03:47 207 4 gusting 13 22.2
2020-Jul-11 03:42 147 4 gusting 13 22.2
2020-Jul-11 03:37 166 4 gusting 13 22.2
2020-Jul-11 03:32 140 3 gusting 9 22.2
2020-Jul-11 03:27 165 3 gusting 9 22.2
2020-Jul-11 03:22 172 3 gusting 9 22.2
2020-Jul-11 03:17 211 4 gusting 9 22.2
2020-Jul-11 03:12 185 3 gusting 11 22.2
2020-Jul-11 03:07 176 4 gusting 11 22.2
2020-Jul-11 03:02 153 4 gusting 13 22.2
2020-Jul-11 02:57 133 3 gusting 13 22.2
2020-Jul-11 02:52 176 3 gusting 9 22.2
2020-Jul-11 02:47 176 3 gusting 11 22.2
2020-Jul-11 02:42 146 3 gusting 11 22.2
2020-Jul-11 02:37 158 4 gusting 11 22.2
2020-Jul-11 02:32 163 4 gusting 11 22.2
2020-Jul-11 02:27 157 3 gusting 6 22.2
2020-Jul-11 02:22 199 3 gusting 9 22.2
2020-Jul-11 02:17 146 3 gusting 9 22.2
2020-Jul-11 02:12 156 3 gusting 9 22.2
2020-Jul-11 02:07 164 3 gusting 9 22.2
2020-Jul-11 02:02 333 3 gusting 9 22.2
2020-Jul-11 01:57 141 3 gusting 7 22.2
2020-Jul-11 01:52 115 3 gusting 7 22.8
2020-Jul-11 01:47 151 3 gusting 7 22.8
2020-Jul-11 01:42 163 3 gusting 9 22.8
2020-Jul-11 01:37 154 3 gusting 9 22.8
2020-Jul-11 01:32 152 1 gusting 7 22.8
2020-Jul-11 01:27 141 1 gusting 7 22.8
2020-Jul-11 01:22 181 1 gusting 6 22.8
2020-Jul-11 01:17 136 3 gusting 7 22.8
2020-Jul-11 01:12 168 3 gusting 7 22.8
2020-Jul-11 01:07 146 3 gusting 9 22.8
2020-Jul-11 01:02 193 3 gusting 9 22.8
2020-Jul-11 00:57 058 3 gusting 9 22.8
2020-Jul-11 00:52 114 3 gusting 9 23.3
2020-Jul-11 00:47 131 1 gusting 11 23.3
2020-Jul-11 00:42 158 3 gusting 11 23.3
2020-Jul-11 00:37 150 3 gusting 11 23.3
2020-Jul-11 00:32 189 4 gusting 11 23.3
2020-Jul-11 00:27 148 3 gusting 11 23.3
2020-Jul-11 00:22 170 3 gusting 13 23.3
2020-Jul-11 00:17 164 3 gusting 13 23.3
2020-Jul-11 00:12 221 1 gusting 9 23.3
2020-Jul-11 00:07 163 3 gusting 13 23.3
2020-Jul-11 00:02 181 3 gusting 13 23.3
2020-Jul-10 23:57 209 1 gusting 7 23.3
2020-Jul-10 23:52 171 3 gusting 13 23.3
2020-Jul-10 23:47 245 3 gusting 13 23.3
2020-Jul-10 23:42 212 3 gusting 7 23.3
2020-Jul-10 23:37 149 3 gusting 15 23.3
2020-Jul-10 23:32 176 3 gusting 15 23.3
2020-Jul-10 23:27 165 3 gusting 13 23.3
2020-Jul-10 23:22 195 3 gusting 7 23.3
2020-Jul-10 23:17 200 3 gusting 7 23.3
2020-Jul-10 23:12 274 1 gusting 7 23.9
2020-Jul-10 23:07 158 3 gusting 13 23.9
2020-Jul-10 23:02 148 3 gusting 13 23.9
2020-Jul-10 22:57 145 3 gusting 7 23.9
2020-Jul-10 22:52 173 3 gusting 11 23.9
2020-Jul-10 22:47 162 3 gusting 13 23.9
2020-Jul-10 22:42 157 3 gusting 13 23.9
2020-Jul-10 22:37 192 4 gusting 15 23.9
2020-Jul-10 22:32 138 2 gusting 19 23.9
2020-Jul-10 22:27 143 4 gusting 19 23.9
2020-Jul-10 22:22 202 4 gusting 13 23.9
2020-Jul-10 22:17 187 3 gusting 13 23.9
2020-Jul-10 22:12 219 1 gusting 13 23.9
2020-Jul-10 22:07 165 3 gusting 11 23.9
2020-Jul-10 22:02 169 3 gusting 11 23.9
2020-Jul-10 21:57 075 1 gusting 9 23.9
2020-Jul-10 21:52 203 3 gusting 11 23.9
2020-Jul-10 21:47 169 4 gusting 13 23.9
2020-Jul-10 21:42 250 3 gusting 13 23.9
2020-Jul-10 21:37 038 3 gusting 11 23.9
2020-Jul-10 21:32 120 3 gusting 11 23.9
2020-Jul-10 21:27 172 3 gusting 11 23.9
2020-Jul-10 21:22 150 3 gusting 7 23.9
2020-Jul-10 21:17 038 1 gusting 6 23.9
2020-Jul-10 21:12 191 1 gusting 6 23.9
2020-Jul-10 21:07 136 1 gusting 7 23.9
2020-Jul-10 21:02 143 1 gusting 9 23.9
2020-Jul-10 20:57 203 1 gusting 9 23.9
2020-Jul-10 20:52 250 1 gusting 6 23.9
2020-Jul-10 20:47 056 1 gusting 6 23.9
2020-Jul-10 20:42 036 1 gusting 4 23.3
2020-Jul-10 20:37 121 1 gusting 4 23.9
2020-Jul-10 20:32 283 1 gusting 4 23.9
2020-Jul-10 20:27 153 1 gusting 17 23.9
2020-Jul-10 20:22 145 1 gusting 17 23.9
2020-Jul-10 20:17 196 1 gusting 7 23.9
2020-Jul-10 20:12 189 1 gusting 9 23.9
2020-Jul-10 20:07 142 1 gusting 9 23.9
2020-Jul-10 20:02 162 1 gusting 7 24.4
2020-Jul-10 19:57 205 3 gusting 7 24.4
2020-Jul-10 19:52 205 3 gusting 7 24.4
2020-Jul-10 19:46 131 3 gusting 7 24.4
2020-Jul-10 19:41 176 3 gusting 7 24.4
2020-Jul-10 19:36 136 1 gusting 7 24.4
2020-Jul-10 19:31 145 1 gusting 15 24.4
2020-Jul-10 19:26 137 1 gusting 15 24.4
2020-Jul-10 19:21 043 1 gusting 4 23.9
2020-Jul-10 19:16 351 1 gusting 7 23.9
2020-Jul-10 19:11 164 1 gusting 7 23.9
2020-Jul-10 19:06 153 1 gusting 7 23.9
2020-Jul-10 19:02 239 1 gusting 7 23.9
2020-Jul-10 18:56 056 1 gusting 6 23.9
2020-Jul-10 18:51 127 1 gusting 4 23.9
2020-Jul-10 18:46 107 23.9
2020-Jul-10 18:41 165 23.9
2020-Jul-10 18:36 122 23.9
2020-Jul-10 18:31 146 23.9
2020-Jul-10 18:26 144 23.9
2020-Jul-10 18:21 180 23.9
2020-Jul-10 18:16 146 23.9
2020-Jul-10 18:11 164 23.9
2020-Jul-10 18:06 108 23.9
2020-Jul-10 18:01 205 23.9
2020-Jul-10 17:56 204 23.9
2020-Jul-10 17:51 097 23.9
2020-Jul-10 17:46 152 23.9
2020-Jul-10 17:41 072 23.9
2020-Jul-10 17:36 124 23.9
2020-Jul-10 17:31 116 23.9
2020-Jul-10 17:26 142 1 gusting 6 23.9
2020-Jul-10 17:21 174 23.9
2020-Jul-10 17:16 101 23.9
2020-Jul-10 17:11 264 23.9
2020-Jul-10 17:06 153 1 gusting 4 23.9
2020-Jul-10 17:01 154 23.9
2020-Jul-10 16:56 111 23.9
2020-Jul-10 16:51 205 1 gusting 6 23.9
2020-Jul-10 16:46 146 23.9
2020-Jul-10 16:41 185 24.4
2020-Jul-10 16:36 133 24.4
2020-Jul-10 16:31 152 24.4
2020-Jul-10 16:26 291 24.4
2020-Jul-10 16:21 156 24.4
2020-Jul-10 16:16 162 24.4
2020-Jul-10 16:11 083 25.0
2020-Jul-10 16:06 018 25.0
2020-Jul-10 16:01 072 25.0
2020-Jul-10 15:56 061 25.0
2020-Jul-10 15:51 154 25.0
2020-Jul-10 15:46 154 25.0
2020-Jul-10 15:41 154 25.0
2020-Jul-10 15:36 159 25.6
2020-Jul-10 15:31 183 25.6
2020-Jul-10 15:26 082 25.6
2020-Jul-10 15:21 176 25.6
2020-Jul-10 15:16 144 25.6
2020-Jul-10 15:11 070 25.6
2020-Jul-10 15:06 001 25.6
2020-Jul-10 15:01 127 25.6
2020-Jul-10 14:56 180 25.6
2020-Jul-10 14:51 134 25.6
2020-Jul-10 14:46 051 25.6
2020-Jul-10 14:41 142 25.6
2020-Jul-10 14:36 070 25.6
2020-Jul-10 14:31 148 25.6
2020-Jul-10 14:26 113 25.6
2020-Jul-10 14:21 136 25.6
2020-Jul-10 14:16 131 25.6
2020-Jul-10 14:11 124 25.6
2020-Jul-10 14:06 146 25.6
2020-Jul-10 14:01 340 25.6
2020-Jul-10 13:56 083 25.6
2020-Jul-10 13:51 139 25.6
2020-Jul-10 13:46 141 25.0
2020-Jul-10 13:41 140 25.0
2020-Jul-10 13:36 172 25.0
2020-Jul-10 13:31 152 25.0
2020-Jul-10 13:26 132 25.0
2020-Jul-10 13:21 151 25.0
2020-Jul-10 13:16 142 25.0
2020-Jul-10 13:11 155 25.0
2020-Jul-10 13:06 073 24.4
2020-Jul-10 13:01 073 24.4
2020-Jul-10 12:55 070 24.4
2020-Jul-10 12:50 069 24.4
2020-Jul-10 12:45 053 24.4
2020-Jul-10 12:40 210 24.4
2020-Jul-10 12:35 072 1 gusting 6 24.4
2020-Jul-10 12:30 026 24.4
2020-Jul-10 12:25 065 24.4
2020-Jul-10 12:20 065 23.9
2020-Jul-10 12:15 041 24.4
2020-Jul-10 12:10 115 23.9
2020-Jul-10 12:05 115 23.9
2020-Jul-10 12:00 063 23.9
2020-Jul-10 11:55 063 23.9
2020-Jul-10 11:50 056 23.9
2020-Jul-10 11:45 082 23.9
2020-Jul-10 11:40 082 23.9
2020-Jul-10 11:35 126 23.9
2020-Jul-10 11:30 155 23.9
2020-Jul-10 11:25 155 23.3
2020-Jul-10 11:20 155 23.3
2020-Jul-10 11:15 155 23.3
2020-Jul-10 11:10 065 23.3
2020-Jul-10 11:05 065 23.3
2020-Jul-10 11:00 065 23.3
2020-Jul-10 10:55 063 23.3
2020-Jul-10 10:50 063 23.3
2020-Jul-10 10:45 072 23.3
2020-Jul-10 10:40 072 23.3
2020-Jul-10 10:35 072 23.3
2020-Jul-10 10:30 072 23.3
2020-Jul-10 10:25 072 23.3
2020-Jul-10 10:20 072 23.3
2020-Jul-10 10:15 071 23.3
2020-Jul-10 10:10 072 23.3
2020-Jul-10 10:05 072 23.3
2020-Jul-10 10:00 072 23.3
2020-Jul-10 09:55 148 23.3
2020-Jul-10 09:50 148 23.3
2020-Jul-10 09:45 148 23.3
2020-Jul-10 09:40 148 23.3
2020-Jul-10 09:35 148 23.3
2020-Jul-10 09:30 148 23.3
2020-Jul-10 09:25 148 23.3
2020-Jul-10 09:20 148 23.3
2020-Jul-10 09:15 148 23.3
2020-Jul-10 09:10 148 23.3
2020-Jul-10 09:05 148 23.3
2020-Jul-10 09:00 148 23.3
2020-Jul-10 08:55 148 23.3
2020-Jul-10 08:50 148 23.3
2020-Jul-10 08:45 148 23.3
2020-Jul-10 08:40 148 23.3
2020-Jul-10 08:35 148 23.3
2020-Jul-10 08:30 148 23.3
2020-Jul-10 08:25 148 23.3
2020-Jul-10 08:20 148 23.3
2020-Jul-10 08:15 148 23.3
2020-Jul-10 08:10 148 23.3
2020-Jul-10 08:05 148 23.3
2020-Jul-10 08:00 148 23.3
2020-Jul-10 07:55 148 23.3
2020-Jul-10 07:50 148 23.3
2020-Jul-10 07:45 148 23.3
2020-Jul-10 07:40 148 23.3
2020-Jul-10 07:35 148 23.3
2020-Jul-10 07:30 148 23.3
2020-Jul-10 07:25 148 23.3
2020-Jul-10 07:20 148 23.3
2020-Jul-10 07:15 148 23.3
2020-Jul-10 07:10 148 23.3
2020-Jul-10 07:05 148 23.3
2020-Jul-10 07:00 148 23.3
2020-Jul-10 06:55 148 23.3
2020-Jul-10 06:50 172 23.3
2020-Jul-10 06:45 172 23.3
2020-Jul-10 06:40 172 23.3
2020-Jul-10 06:35 172 23.3
2020-Jul-10 06:30 172 23.3
2020-Jul-10 06:25 172 23.3
2020-Jul-10 06:20 172 23.3
2020-Jul-10 06:15 172 23.3
2020-Jul-10 06:10 172 23.3
2020-Jul-10 06:05 159 23.3
2020-Jul-10 06:00 159 23.3
2020-Jul-10 05:55 159 23.3
2020-Jul-10 05:49 159 23.3
2020-Jul-10 05:44 159 23.3
2020-Jul-10 05:39 159 23.3
2020-Jul-10 05:34 159 23.3
2020-Jul-10 05:29 159 23.3
2020-Jul-10 05:24 159 23.3
2020-Jul-10 05:19 159 23.3
2020-Jul-10 05:14 159 23.3
2020-Jul-10 05:09 159 23.3
2020-Jul-10 05:04 159 23.3
2020-Jul-10 04:59 159 23.3
2020-Jul-10 04:54 159 23.3
2020-Jul-10 04:49 159 23.3
2020-Jul-10 04:44 159 23.3
2020-Jul-10 04:39 159 23.3
2020-Jul-10 04:34 159 23.3
2020-Jul-10 04:29 159 23.3
2020-Jul-10 04:24 159 23.3
2020-Jul-10 04:19 159 22.8
2020-Jul-10 04:14 159 22.8
2020-Jul-10 04:09 159 22.8
2020-Jul-10 04:04 159 22.8
2020-Jul-10 03:59 159 22.8
2020-Jul-10 03:54 159 22.8
2020-Jul-10 03:49 159 22.8
2020-Jul-10 03:44 159 22.8
2020-Jul-10 03:39 159 22.8
2020-Jul-10 03:34 159 22.8
2020-Jul-10 03:29 159 22.8
2020-Jul-10 03:24 159 22.8
2020-Jul-10 03:19 159 23.3
2020-Jul-10 03:14 159 23.3
2020-Jul-10 03:09 159 23.3
2020-Jul-10 03:04 159 23.3
2020-Jul-10 02:59 159 23.3
2020-Jul-10 02:54 159 23.3
2020-Jul-10 02:49 159 23.3
2020-Jul-10 02:44 159 23.3
2020-Jul-10 02:39 159 23.3
2020-Jul-10 02:34 159 23.3
2020-Jul-10 02:29 159 23.3
2020-Jul-10 02:24 159 23.3
2020-Jul-10 02:19 159 23.3
2020-Jul-10 02:14 159 23.3
2020-Jul-10 02:09 159 23.3
2020-Jul-10 02:04 159 23.3
2020-Jul-10 01:59 159 23.3
2020-Jul-10 01:54 159 23.9
2020-Jul-10 01:49 159 23.9
2020-Jul-10 01:44 159 23.9
2020-Jul-10 01:39 159 23.9
2020-Jul-10 01:34 159 23.9
2020-Jul-10 01:29 159 23.9
2020-Jul-10 01:24 159 23.9
2020-Jul-10 01:19 159 24.4
2020-Jul-10 01:14 159 24.4
2020-Jul-10 01:09 159 24.4
2020-Jul-10 01:04 159 24.4
2020-Jul-10 00:59 159 24.4
2020-Jul-10 00:54 159 24.4
2020-Jul-10 00:49 159 25.0
2020-Jul-10 00:44 159 25.0
2020-Jul-10 00:39 159 25.0
2020-Jul-10 00:34 159 25.6
2020-Jul-10 00:29 159 25.6
2020-Jul-10 00:24 159 25.6
2020-Jul-10 00:19 159 25.6
2020-Jul-10 00:14 159 26.1
2020-Jul-10 00:09 159 26.1
2020-Jul-10 00:04 159 26.1
2020-Jul-09 23:59 159 26.1
2020-Jul-09 23:54 159 26.1
2020-Jul-09 23:48 159 26.1
2020-Jul-09 23:43 159 26.1
2020-Jul-09 23:38 159 26.1
2020-Jul-09 23:33 153 26.1
2020-Jul-09 23:28 162 26.7
2020-Jul-09 23:23 165 26.7
2020-Jul-09 23:18 150 26.7
2020-Jul-09 23:13 203 26.7
2020-Jul-09 23:08 161 26.7
2020-Jul-09 23:03 167 26.7
2020-Jul-09 22:58 173 26.7
2020-Jul-09 22:53 175 1 gusting 4 27.2
2020-Jul-09 22:48 160 1 gusting 4 27.2
2020-Jul-09 22:43 201 1 gusting 4 27.2
2020-Jul-09 22:38 205 1 gusting 4 27.8
2020-Jul-09 22:33 164 1 gusting 3 27.8
2020-Jul-09 22:28 200 28.3
2020-Jul-09 22:23 162 1 gusting 4 28.9
2020-Jul-09 22:18 163 1 gusting 4 28.9
2020-Jul-09 22:13 191 1 gusting 4 28.9
2020-Jul-09 22:08 161 1 gusting 3 28.9
2020-Jul-09 22:03 209 28.9
2020-Jul-09 21:58 147 28.9
2020-Jul-09 21:53 212 1 gusting 4 28.3
2020-Jul-09 21:48 193 1 gusting 3 28.3
2020-Jul-09 21:44 171 1 gusting 3 28.3
2020-Jul-09 21:38 166 1 gusting 3 28.3
2020-Jul-09 21:33 157 1 gusting 3 28.3
2020-Jul-09 21:28 162 28.3
2020-Jul-09 21:23 198 28.3
2020-Jul-09 21:18 205 28.3
2020-Jul-09 21:13 158 1 gusting 4 28.3
2020-Jul-09 21:08 214 1 gusting 4 28.3
2020-Jul-09 21:03 153 1 gusting 4 28.3
2020-Jul-09 20:58 190 1 gusting 3 28.3
2020-Jul-09 20:53 163 1 gusting 3 28.3
2020-Jul-09 20:48 160 1 gusting 3 28.3
2020-Jul-09 20:43 205 1 gusting 4 28.3
2020-Jul-09 20:38 229 1 gusting 4 28.3
2020-Jul-09 20:33 206 1 gusting 3 28.3
2020-Jul-09 20:28 174 1 gusting 3 28.3
2020-Jul-09 20:23 197 1 gusting 6 28.3
2020-Jul-09 20:18 172 1 gusting 6 28.3
2020-Jul-09 20:13 179 1 gusting 6 28.3
2020-Jul-09 20:08 159 1 gusting 6 28.3
2020-Jul-09 20:03 158 1 gusting 4 28.3
2020-Jul-09 19:58 191 1 gusting 4 28.3
2020-Jul-09 19:53 153 1 gusting 4 28.9
2020-Jul-09 19:48 168 1 gusting 4 28.9
2020-Jul-09 19:43 181 1 gusting 4 28.9
2020-Jul-09 19:38 153 1 gusting 4 28.9
2020-Jul-09 19:33 176 1 gusting 4 28.9
2020-Jul-09 19:28 172 28.9
2020-Jul-09 19:23 239 28.9
2020-Jul-09 19:18 209 1 gusting 4 28.9
2020-Jul-09 19:13 178 1 gusting 4 28.9
2020-Jul-09 19:08 203 1 gusting 3 28.9
2020-Jul-09 19:03 158 1 gusting 4 28.9
2020-Jul-09 18:58 207 1 gusting 4 28.9
2020-Jul-09 18:53 209 1 gusting 4 28.9
2020-Jul-09 18:48 158 1 gusting 6 28.9
2020-Jul-09 18:43 155 1 gusting 6 28.9
2020-Jul-09 18:38 160 1 gusting 4 28.9
2020-Jul-09 18:33 166 1 gusting 4 28.9
2020-Jul-09 18:28 169 1 gusting 4 28.9
2020-Jul-09 18:23 211 1 gusting 4 29.4
2020-Jul-09 18:18 131 1 gusting 4 29.4
2020-Jul-09 18:13 271 1 gusting 4 29.4
2020-Jul-09 18:08 214 1 gusting 4 29.4
2020-Jul-09 18:03 181 1 gusting 4 28.9
2020-Jul-09 17:58 172 1 gusting 4 29.4
2020-Jul-09 17:53 157 1 gusting 4 29.4
2020-Jul-09 17:48 144 1 gusting 4 29.4
2020-Jul-09 17:43 219 1 gusting 6 29.4
2020-Jul-09 17:38 201 1 gusting 6 29.4
2020-Jul-09 17:33 187 1 gusting 4 29.4
2020-Jul-09 17:28 148 1 gusting 4 29.4
2020-Jul-09 17:23 146 1 gusting 4 29.4
2020-Jul-09 17:18 145 1 gusting 4 29.4
2020-Jul-09 17:13 169 1 gusting 3 29.4
2020-Jul-09 17:08 293 1 gusting 6 29.4
2020-Jul-09 17:03 207 1 gusting 6 29.4
2020-Jul-09 16:58 173 29.4
2020-Jul-09 16:53 170 29.4
2020-Jul-09 16:48 186 28.9
2020-Jul-09 16:43 250 28.9
2020-Jul-09 16:38 227 28.9
2020-Jul-09 16:32 245 28.9
2020-Jul-09 16:27 219 28.9
2020-Jul-09 16:23 068 1 gusting 6 28.3
2020-Jul-09 16:17 174 1 gusting 6 28.3
2020-Jul-09 16:12 228 1 gusting 4 28.9
2020-Jul-09 16:07 192 28.9
2020-Jul-09 16:02 303 28.3
2020-Jul-09 15:57 199 28.3
2020-Jul-09 15:52 264 1 gusting 3 28.3
2020-Jul-09 15:47 151 1 gusting 4 28.9
2020-Jul-09 15:42 198 1 gusting 4 28.9
2020-Jul-09 15:37 210 1 gusting 4 28.9
2020-Jul-09 15:32 168 1 gusting 4 28.9
2020-Jul-09 15:27 192 28.9
2020-Jul-09 15:22 210 28.9
2020-Jul-09 15:17 200 1 gusting 3 28.9
2020-Jul-09 15:12 188 1 gusting 3 28.9
2020-Jul-09 15:07 162 1 gusting 4 28.9
2020-Jul-09 15:02 172 1 gusting 4 29.4
2020-Jul-09 14:57 168 1 gusting 4 29.4
2020-Jul-09 14:52 162 1 gusting 4 29.4
2020-Jul-09 14:47 150 1 gusting 4 29.4
2020-Jul-09 14:42 208 29.4
2020-Jul-09 14:37 152 29.4
2020-Jul-09 14:32 240 29.4
2020-Jul-09 14:27 326 29.4
2020-Jul-09 14:22 165 28.9
2020-Jul-09 14:17 303 28.9
2020-Jul-09 14:12 261 28.9
2020-Jul-09 14:07 206 28.9
2020-Jul-09 14:02 229 28.3
2020-Jul-09 13:57 193 1 gusting 3 28.3
2020-Jul-09 13:52 155 27.8
2020-Jul-09 13:47 199 27.8
2020-Jul-09 13:42 250 27.2
2020-Jul-09 13:37 210 26.7
2020-Jul-09 13:32 253 26.1
2020-Jul-09 13:27 163 26.1
2020-Jul-09 13:22 162 25.6
2020-Jul-09 13:17 207 25.6
2020-Jul-09 13:12 264 25.6
2020-Jul-09 13:07 246 25.6
2020-Jul-09 13:02 316 25.0
2020-Jul-09 12:57 316 25.0
2020-Jul-09 12:52 255 25.0
2020-Jul-09 12:47 236 24.4
2020-Jul-09 12:42 237 24.4
2020-Jul-09 12:37 237 24.4
2020-Jul-09 12:32 259 24.4
2020-Jul-09 12:27 248 24.4
2020-Jul-09 12:22 248 24.4
2020-Jul-09 12:17 245 24.4
2020-Jul-09 12:12 252 24.4
2020-Jul-09 12:07 236 24.4
2020-Jul-09 12:02 257 24.4
2020-Jul-09 11:57 247 23.9
2020-Jul-09 11:52 267 23.9
2020-Jul-09 11:47 212 23.9
2020-Jul-09 11:42 198 23.9
2020-Jul-09 11:37 198 23.9
2020-Jul-09 11:32 198 23.9
2020-Jul-09 11:27 198 23.9
2020-Jul-09 11:22 198 23.3
2020-Jul-09 11:17 198 23.3
2020-Jul-09 11:12 198 23.3
2020-Jul-09 11:07 198 22.8
2020-Jul-09 11:02 198 22.8
2020-Jul-09 10:57 198 22.8
2020-Jul-09 10:52 198 22.2
2020-Jul-09 10:47 198 22.2
2020-Jul-09 10:42 198 22.2
2020-Jul-09 10:37 198 22.2
2020-Jul-09 10:32 198 22.2
2020-Jul-09 10:27 198 22.2
2020-Jul-09 10:22 198 22.2
2020-Jul-09 10:17 198 22.2
2020-Jul-09 10:12 198 22.2
2020-Jul-09 10:07 198 22.2
2020-Jul-09 10:02 198 22.2
2020-Jul-09 09:57 198 22.2
2020-Jul-09 09:51 198 22.2
2020-Jul-09 09:47 198 22.2
2020-Jul-09 09:41 198 22.2
2020-Jul-09 09:37 198 22.2
2020-Jul-09 09:31 198 22.2
2020-Jul-09 09:26 198 22.2
2020-Jul-09 09:21 198 22.2
2020-Jul-09 09:16 198 22.2
2020-Jul-09 09:11 198 22.2
2020-Jul-09 09:06 198 22.2
2020-Jul-09 09:01 198 22.2
2020-Jul-09 08:56 198 22.2
2020-Jul-09 08:51 198 22.2
2020-Jul-09 08:46 198 22.2
2020-Jul-09 08:41 198 22.2
2020-Jul-09 08:37 198 22.2
2020-Jul-09 08:31 198 22.2
2020-Jul-09 08:26 198 22.2
2020-Jul-09 08:21 198 22.2
2020-Jul-09 08:16 198 22.2
2020-Jul-09 08:11 198 22.8
2020-Jul-09 08:06 198 22.8
2020-Jul-09 08:01 198 22.8
2020-Jul-09 07:56 198 22.8
2020-Jul-09 07:51 198 22.8
2020-Jul-09 07:46 198 22.8
2020-Jul-09 07:41 198 22.8
2020-Jul-09 07:36 198 22.8
2020-Jul-09 07:31 198 22.8
2020-Jul-09 07:26 198 22.8
2020-Jul-09 07:21 198 23.3
2020-Jul-09 07:16 198 23.3
2020-Jul-09 07:11 198 23.3
2020-Jul-09 07:06 198 23.3
2020-Jul-09 07:01 198 23.3
2020-Jul-09 06:56 198 23.3
2020-Jul-09 06:51 198 23.3
2020-Jul-09 06:46 198 23.3
2020-Jul-09 06:41 198 23.3
2020-Jul-09 06:36 198 23.3
2020-Jul-09 06:31 198 23.3
2020-Jul-09 06:26 198 23.3
2020-Jul-09 06:21 198 23.3
2020-Jul-09 06:16 198 23.3
2020-Jul-09 06:11 198 23.3
2020-Jul-09 06:06 198 23.9
2020-Jul-09 06:01 195 23.9
2020-Jul-09 05:56 195 23.9
2020-Jul-09 05:51 203 23.9
2020-Jul-09 05:46 203 23.9
2020-Jul-09 05:41 203 23.9
2020-Jul-09 05:36 203 23.9
2020-Jul-09 05:31 203 23.9
2020-Jul-09 05:26 203 23.9
2020-Jul-09 05:21 203 23.9
2020-Jul-09 05:16 212 23.9
2020-Jul-09 05:11 200 23.9
2020-Jul-09 05:06 200 23.9
2020-Jul-09 05:01 200 23.9